When you browse on this site, cookies collect data to enhance your experience and personalize the content and advertising you see.
Visit our Privacy Policy to learn more. By continuing to use the site, you agree to this use of cookies and data.
  • en France
  • Liste des pays
  • À 7 jours
  • Température de l'eau
  • Carte météo
  • Widgets météo
  • user-avatar
    Se connecter

    Météo par heure à Hamburg

    Ce jour, 16 Septembre, Lundi

    Heure Température Précipitation Vent Pression Humidité
    00:00 +12°C° 0 mm 2 m/s 764 mmHg 85%
    01:00 +12°C° 0 mm 2 m/s 764 mmHg 89%
    02:00 +12°C° 0 mm 2 m/s 764 mmHg 88%
    03:00 +10°C° 0 mm 2 m/s 764 mmHg 88%
    04:00 +10°C° 0 mm 2 m/s 764 mmHg 87%
    05:00 +10°C° 0 mm 2 m/s 764 mmHg 87%
    06:00 +12°C° 0 mm 2 m/s 763 mmHg 86%
    07:00 +12°C° 0 mm 2 m/s 763 mmHg 86%
    08:00 +13°C° 0 mm 2 m/s 763 mmHg 80%
    09:00 +13°C° 0 mm 3 m/s 763 mmHg 75%
    10:00 +14°C° 0 mm 3 m/s 763 mmHg 70%
    11:00 +14°C° 0.1 mm 4 m/s 763 mmHg 68%
    12:00 +15°C° 0.1 mm 4 m/s 763 mmHg 66%
    13:00 +15°C° 0.1 mm 4 m/s 763 mmHg 65%
    14:00 +15°C° 0 mm 4 m/s 763 mmHg 65%
    15:00 +15°C° 0 mm 4 m/s 762 mmHg 65%
    16:00 +15°C° 0 mm 4 m/s 762 mmHg 65%
    17:00 +13°C° 0 mm 3 m/s 762 mmHg 71%
    18:00 +12°C° 0 mm 3 m/s 762 mmHg 76%
    19:00 +12°C° 0 mm 2 m/s 762 mmHg 82%
    20:00 +10°C° 0 mm 2 m/s 762 mmHg 84%
    21:00 +10°C° 0 mm 2 m/s 762 mmHg 87%
    22:00 +9°C° 0 mm 2 m/s 762 mmHg 90%
    23:00 +10°C° 0 mm 3 m/s 762 mmHg 87%

    Demain, 17 Septembre, Mardi

    Heure Température Précipitation Vent Pression Humidité
    00:00 +10°C° 0 mm 3 m/s 762 mmHg 83%
    01:00 +11°C° 0 mm 3 m/s 762 mmHg 80%
    02:00 +11°C° 0.1 mm 3 m/s 762 mmHg 80%
    03:00 +11°C° 0.1 mm 4 m/s 761 mmHg 81%
    04:00 +11°C° 0.1 mm 4 m/s 761 mmHg 81%
    05:00 +11°C° 0.1 mm 4 m/s 761 mmHg 82%
    06:00 +11°C° 0.1 mm 4 m/s 761 mmHg 83%
    07:00 +10°C° 0.1 mm 5 m/s 761 mmHg 84%
    08:00 +10°C° 0.3 mm 5 m/s 761 mmHg 80%
    09:00 +11°C° 0.3 mm 6 m/s 761 mmHg 75%
    10:00 +12°C° 0.3 mm 7 m/s 761 mmHg 70%
    11:00 +12°C° 0.1 mm 8 m/s 761 mmHg 66%
    12:00 +12°C° 0.1 mm 8 m/s 760 mmHg 62%
    13:00 +12°C° 0.1 mm 9 m/s 760 mmHg 57%
    14:00 +12°C° 0.2 mm 8 m/s 761 mmHg 60%
    15:00 +11°C° 0.2 mm 8 m/s 761 mmHg 62%
    16:00 +11°C° 0.2 mm 8 m/s 761 mmHg 65%
    17:00 +10°C° 0 mm 7 m/s 761 mmHg 67%
    18:00 +9°C° 0 mm 5 m/s 762 mmHg 69%
    19:00 +8°C° 0 mm 4 m/s 762 mmHg 70%
    20:00 +8°C° 0 mm 4 m/s 763 mmHg 73%
    21:00 +8°C° 0 mm 4 m/s 763 mmHg 76%
    22:00 +8°C° 0 mm 3 m/s 764 mmHg 79%
    23:00 +9°C° 0 mm 3 m/s 764 mmHg 80%

    Après-demain, 18 Septembre, Mercredi

    Heure Température Précipitation Vent Pression Humidité
    00:00 +9°C° 0 mm 3 m/s 764 mmHg 81%
    01:00 +9°C° 0 mm 3 m/s 764 mmHg 81%
    02:00 +9°C° 0 mm 3 m/s 765 mmHg 78%
    03:00 +10°C° 0 mm 4 m/s 765 mmHg 76%
    04:00 +10°C° 0 mm 4 m/s 765 mmHg 73%
    05:00 +10°C° 0 mm 4 m/s 765 mmHg 73%
    06:00 +10°C° 0 mm 4 m/s 765 mmHg 73%
    07:00 +10°C° 0 mm 4 m/s 765 mmHg 74%
    08:00 +11°C° 0 mm 4 m/s 766 mmHg 70%
    09:00 +12°C° 0 mm 4 m/s 766 mmHg 66%
    10:00 +12°C° 0 mm 5 m/s 766 mmHg 63%
    11:00 +13°C° 0 mm 5 m/s 766 mmHg 61%
    12:00 +13°C° 0 mm 6 m/s 766 mmHg 59%
    13:00 +14°C° 0 mm 6 m/s 766 mmHg 57%
    14:00 +14°C° 0 mm 6 m/s 766 mmHg 57%
    15:00 +14°C° 0 mm 6 m/s 766 mmHg 56%
    16:00 +13°C° 0 mm 6 m/s 766 mmHg 56%
    17:00 +12°C° 0 mm 5 m/s 766 mmHg 62%
    18:00 +11°C° 0 mm 4 m/s 767 mmHg 68%
    19:00 +9°C° 0 mm 3 m/s 767 mmHg 74%
    20:00 +8°C° 0 mm 3 m/s 767 mmHg 77%
    21:00 +8°C° 0 mm 3 m/s 767 mmHg 80%
    22:00 +7°C° 0 mm 2 m/s 768 mmHg 84%
    23:00 +7°C° 0 mm 2 m/s 768 mmHg 83%

    19 Septembre, Jeudi

    Heure Température Précipitation Vent Pression Humidité
    00:00 +7°C° 0 mm 2 m/s 768 mmHg 83%
    01:00 +7°C° 0 mm 2 m/s 768 mmHg 83%
    02:00 +7°C° 0 mm 2 m/s 768 mmHg 81%
    03:00 +8°C° 0 mm 2 m/s 768 mmHg 79%
    04:00 +8°C° 0 mm 2 m/s 768 mmHg 77%
    05:00 +9°C° 0 mm 2 m/s 769 mmHg 76%
    06:00 +9°C° 0 mm 2 m/s 769 mmHg 74%
    07:00 +10°C° 0 mm 2 m/s 769 mmHg 73%
    08:00 +12°C° 0 mm 2 m/s 769 mmHg 68%
    09:00 +12°C° 0 mm 3 m/s 770 mmHg 63%
    10:00 +13°C° 0 mm 3 m/s 770 mmHg 59%
    11:00 +13°C° 0 mm 3 m/s 771 mmHg 58%
    12:00 +14°C° 0 mm 3 m/s 771 mmHg 56%
    13:00 +14°C° 0 mm 3 m/s 771 mmHg 55%
    14:00 +14°C° 0 mm 3 m/s 771 mmHg 57%
    15:00 +14°C° 0 mm 3 m/s 771 mmHg 58%
    16:00 +14°C° 0 mm 3 m/s 770 mmHg 59%
    17:00 +13°C° 0 mm 3 m/s 771 mmHg 64%
    18:00 +12°C° 0 mm 3 m/s 771 mmHg 69%
    19:00 +10°C° 0 mm 2 m/s 771 mmHg 74%
    20:00 +10°C° 0 mm 2 m/s 771 mmHg 79%
    21:00 +9°C° 0 mm 2 m/s 771 mmHg 84%
    22:00 +8°C° 0 mm 2 m/s 772 mmHg 89%
    23:00 +9°C° 0 mm 1 m/s 772 mmHg 90%

    20 Septembre, Vendredi

    Heure Température Précipitation Vent Pression Humidité
    00:00 +8°C° 0 mm 1 m/s 772 mmHg 91%
    01:00 +8°C° 0 mm 1 m/s 772 mmHg 93%
    02:00 +8°C° 0 mm 1 m/s 772 mmHg 93%
    03:00 +8°C° 0 mm 1 m/s 771 mmHg 94%
    04:00 +7°C° 0 mm 1 m/s 771 mmHg 94%
    05:00 +8°C° 0 mm 1 m/s 771 mmHg 93%
    06:00 +8°C° 0 mm 1 m/s 771 mmHg 92%
    07:00 +8°C° 0 mm 1 m/s 771 mmHg 91%
    08:00 +10°C° 0 mm 1 m/s 772 mmHg 82%
    09:00 +12°C° 0 mm 1 m/s 772 mmHg 74%
    10:00 +15°C° 0 mm 1 m/s 772 mmHg 65%
    11:00 +15°C° 0 mm 1 m/s 772 mmHg 63%
    12:00 +16°C° 0 mm 1 m/s 772 mmHg 62%
    13:00 +18°C° 0 mm 1 m/s 771 mmHg 60%
    14:00 +18°C° 0 mm 1 m/s 771 mmHg 62%
    15:00 +16°C° 0 mm 1 m/s 771 mmHg 63%
    16:00 +16°C° 0 mm 1 m/s 771 mmHg 64%
    17:00 +15°C° 0 mm 1 m/s 771 mmHg 71%
    18:00 +14°C° 0 mm 1 m/s 770 mmHg 77%
    19:00 +12°C° 0 mm 1 m/s 770 mmHg 83%
    20:00 +12°C° 0 mm 1 m/s 770 mmHg 85%
    21:00 +11°C° 0 mm 1 m/s 770 mmHg 87%
    22:00 +11°C° 0 mm 1 m/s 770 mmHg 89%
    23:00 +10°C° 0 mm 1 m/s 770 mmHg 90%

    21 Septembre, Samedi

    Heure Température Précipitation Vent Pression Humidité
    00:00 +9°C° 0 mm 2 m/s 770 mmHg 91%
    01:00 +8°C° 0 mm 2 m/s 770 mmHg 92%
    02:00 +8°C° 0 mm 2 m/s 770 mmHg 92%
    03:00 +8°C° 0 mm 2 m/s 769 mmHg 92%
    04:00 +8°C° 0 mm 2 m/s 769 mmHg 91%
    05:00 +8°C° 0 mm 2 m/s 769 mmHg 90%
    06:00 +8°C° 0 mm 2 m/s 769 mmHg 88%
    07:00 +8°C° 0 mm 2 m/s 769 mmHg 86%
    08:00 +10°C° 0 mm 2 m/s 768 mmHg 76%
    09:00 +12°C° 0 mm 3 m/s 768 mmHg 67%
    10:00 +16°C° 0 mm 3 m/s 768 mmHg 57%
    11:00 +17°C° 0 mm 3 m/s 768 mmHg 52%
    12:00 +18°C° 0 mm 4 m/s 767 mmHg 47%
    13:00 +20°C° 0 mm 4 m/s 767 mmHg 42%
    14:00 +20°C° 0 mm 4 m/s 766 mmHg 43%
    15:00 +20°C° 0 mm 4 m/s 765 mmHg 43%
    16:00 +20°C° 0 mm 4 m/s 765 mmHg 43%
    17:00 +18°C° 0 mm 4 m/s 765 mmHg 48%
    18:00 +15°C° 0 mm 4 m/s 764 mmHg 52%
    19:00 +13°C° 0 mm 3 m/s 764 mmHg 57%
    20:00 +13°C° 0 mm 3 m/s 764 mmHg 58%
    21:00 +12°C° 0 mm 3 m/s 764 mmHg 60%
    22:00 +11°C° 0 mm 3 m/s 764 mmHg 61%
    23:00 +11°C° 0 mm 3 m/s 764 mmHg 63%
    Voir plus